Location: Bazugues
(43.4465°N, 0.3432°E)
Time: 20:39:31
(UTC+00:00)

Meteor 1-15 Rocket - Pass Details

Date: 12 January 2026
Orbit: 839 x 906 km, 81.2° (Epoch: 13 February)

Event Time Altitude Azimuth Distance (km) Brightness Sun altitude
Rises 18:01:50 0° 349° (N) 3,543 7.4 -13.7°
Reaches altitude 10° 18:04:19 10° 350° (N) 2,597 6.7 -14.2°
Maximum altitude 18:10:16 90° 256° (WSW) 909 4.3 -15.2°
Drops below altitude 10° 18:16:08 10° 172° (S) 2,558 6.8 -16.2°
Sets 18:18:33 0° 172° (S) 3,486 7.5 -16.6°
